Time,TemperatureF,DewpointF,PressureIn,WindDirection,WindDirectionDegrees,WindSpeedMPH,WindSpeedGustMPH,Humidity,HourlyPrecipIn,Conditions,Clouds,dailyrainin,SoftwareType,DateUTC
2013-03-31 00:03:00,33.0,-99.9,30.09,NW,318,0.0,0.0,63,0.00,,,0.00,,2013-03-31 04:03:00,
2013-03-31 00:13:00,33.0,22.0,30.09,NW,318,0.0,0.0,63,0.00,,,0.00,,2013-03-31 04:13:00,
2013-03-31 00:23:00,32.0,22.0,30.09,NW,318,0.0,0.0,66,0.00,,,0.00,,2013-03-31 04:23:00,
2013-03-31 00:33:00,32.0,23.0,30.10,NW,318,0.0,0.0,68,0.00,,,0.00,,2013-03-31 04:33:00,
2013-03-31 00:42:00,32.0,23.0,30.10,NW,318,0.0,0.0,68,0.00,,,0.00,,2013-03-31 04:42:00,
2013-03-31 00:52:00,31.0,21.0,30.10,NW,318,0.0,0.0,67,0.00,,,0.00,,2013-03-31 04:52:00,
2013-03-31 01:02:00,31.0,22.0,30.11,NW,318,0.0,0.0,69,0.00,,,0.00,,2013-03-31 05:02:00,
2013-03-31 01:13:00,31.0,22.0,30.11,NW,318,0.0,0.0,69,0.00,,,0.00,,2013-03-31 05:13:00,
2013-03-31 01:22:00,30.0,22.0,30.11,NW,318,0.0,0.0,71,0.00,,,0.00,,2013-03-31 05:22:00,
2013-03-31 01:32:00,30.0,22.0,30.11,NW,318,0.0,0.0,72,0.00,,,0.00,,2013-03-31 05:32:00,
2013-03-31 01:42:00,30.0,22.0,30.11,NW,318,0.0,0.0,72,0.00,,,0.00,,2013-03-31 05:42:00,
2013-03-31 01:53:00,30.0,22.0,30.11,NW,318,0.0,0.0,73,0.00,,,0.00,,2013-03-31 05:53:00,
2013-03-31 02:02:00,29.0,22.0,30.11,NW,318,0.0,0.0,74,0.00,,,0.00,,2013-03-31 06:02:00,
2013-03-31 02:12:00,29.0,22.0,30.11,NW,318,0.0,0.0,74,0.00,,,0.00,,2013-03-31 06:12:00,
2013-03-31 02:22:00,29.0,22.0,30.11,NW,318,0.0,0.0,75,0.00,,,0.00,,2013-03-31 06:22:00,
2013-03-31 02:33:00,29.0,22.0,30.10,NW,318,0.0,0.0,76,0.00,,,0.00,,2013-03-31 06:33:00,
2013-03-31 02:42:00,29.0,22.0,30.10,NW,318,0.0,0.0,76,0.00,,,0.00,,2013-03-31 06:42:00,
2013-03-31 02:52:00,28.0,22.0,30.10,NW,318,0.0,0.0,77,0.00,,,0.00,,2013-03-31 06:52:00,
2013-03-31 03:02:00,28.0,22.0,30.10,NW,318,0.0,0.0,77,0.00,,,0.00,,2013-03-31 07:02:00,
2013-03-31 03:12:00,28.0,22.0,30.10,NW,318,0.0,0.0,77,0.00,,,0.00,,2013-03-31 07:12:00,
2013-03-31 03:22:00,28.0,22.0,30.10,NW,318,0.0,0.0,77,0.00,,,0.00,,2013-03-31 07:22:00,
2013-03-31 03:33:00,28.0,22.0,30.10,NW,318,0.0,0.0,77,0.00,,,0.00,,2013-03-31 07:33:00,
2013-03-31 03:43:00,28.0,22.0,30.10,NW,318,0.0,0.0,77,0.00,,,0.00,,2013-03-31 07:43:00,
2013-03-31 03:52:00,28.0,22.0,30.09,NW,318,0.0,0.0,77,0.00,,,0.00,,2013-03-31 07:52:00,
2013-03-31 04:02:00,27.0,21.0,30.10,NW,318,0.0,0.0,78,0.00,,,0.00,,2013-03-31 08:02:00,
2013-03-31 04:12:00,27.0,21.0,30.10,NW,318,0.0,0.0,78,0.00,,,0.00,,2013-03-31 08:12:00,
2013-03-31 04:22:00,27.0,21.0,30.10,NW,318,0.0,0.0,79,0.00,,,0.00,,2013-03-31 08:22:00,
2013-03-31 04:32:00,27.0,22.0,30.09,North,-999,-999.0,-999.0,80,0.00,,,0.00,,2013-03-31 08:32:00,
2013-03-31 04:42:00,27.0,22.0,30.09,North,-999,-999.0,-999.0,80,0.00,,,0.00,,2013-03-31 08:42:00,
2013-03-31 04:52:00,27.0,22.0,30.09,NW,318,0.0,0.0,81,0.00,,,0.00,,2013-03-31 08:52:00,
2013-03-31 05:02:00,26.0,21.0,30.10,NW,318,0.0,0.0,81,0.00,,,0.00,,2013-03-31 09:02:00,
2013-03-31 05:12:00,26.0,21.0,30.10,NW,318,0.0,0.0,81,0.00,,,0.00,,2013-03-31 09:12:00,
2013-03-31 05:22:00,26.0,22.0,30.10,NW,318,0.0,0.0,83,0.00,,,0.00,,2013-03-31 09:22:00,
2013-03-31 05:33:00,26.0,22.0,30.10,North,-999,-999.0,-999.0,83,0.00,,,0.00,,2013-03-31 09:33:00,
2013-03-31 05:43:00,26.0,22.0,30.10,North,-999,-999.0,-999.0,83,0.00,,,0.00,,2013-03-31 09:43:00,
2013-03-31 05:53:00,26.0,22.0,30.10,North,-999,-999.0,-999.0,84,0.00,,,0.00,,2013-03-31 09:53:00,
2013-03-31 06:03:00,26.0,22.0,30.10,North,-999,-999.0,-999.0,84,0.00,,,0.00,,2013-03-31 10:03:00,
2013-03-31 06:13:00,26.0,22.0,30.10,North,-999,-999.0,-999.0,84,0.00,,,0.00,,2013-03-31 10:13:00,
2013-03-31 06:24:00,26.0,22.0,30.10,NW,318,0.0,0.0,84,0.00,,,0.00,,2013-03-31 10:24:00,
2013-03-31 06:33:00,25.0,21.0,30.10,North,-999,-999.0,-999.0,84,0.00,,,0.00,,2013-03-31 10:33:00,
2013-03-31 06:42:00,25.0,21.0,30.10,North,-999,-999.0,-999.0,84,0.00,,,0.00,,2013-03-31 10:42:00,
2013-03-31 06:53:00,25.0,21.0,30.10,North,-999,-999.0,-999.0,84,0.00,,,0.00,,2013-03-31 10:53:00,
2013-03-31 07:03:00,25.0,21.0,30.10,North,-999,-999.0,-999.0,85,0.00,,,0.00,,2013-03-31 11:03:00,
2013-03-31 07:12:00,25.0,21.0,30.10,North,-999,-999.0,-999.0,85,0.00,,,0.00,,2013-03-31 11:12:00,
2013-03-31 07:23:00,25.0,21.0,30.11,North,-999,-999.0,-999.0,85,0.00,,,0.00,,2013-03-31 11:23:00,
2013-03-31 07:33:00,25.0,21.0,30.11,North,-999,-999.0,-999.0,86,0.00,,,0.00,,2013-03-31 11:33:00,
2013-03-31 07:42:00,25.0,21.0,30.11,North,-999,-999.0,-999.0,86,0.00,,,0.00,,2013-03-31 11:42:00,
2013-03-31 07:52:00,25.0,22.0,30.11,North,-999,-999.0,-999.0,87,0.00,,,0.00,,2013-03-31 11:52:00,
2013-03-31 08:03:00,26.0,23.0,30.11,North,-999,-999.0,-999.0,87,0.00,,,0.00,,2013-03-31 12:03:00,
2013-03-31 08:12:00,26.0,23.0,30.11,North,-999,-999.0,-999.0,87,0.00,,,0.00,,2013-03-31 12:12:00,
2013-03-31 08:22:00,28.0,25.0,30.11,North,-999,-999.0,-999.0,87,0.00,,,0.00,,2013-03-31 12:22:00,
2013-03-31 08:33:00,29.0,25.0,30.10,North,-999,-999.0,-999.0,85,0.00,,,0.00,,2013-03-31 12:33:00,
2013-03-31 08:42:00,29.0,25.0,30.10,North,-999,-999.0,-999.0,85,0.00,,,0.00,,2013-03-31 12:42:00,
2013-03-31 08:52:00,32.0,26.0,30.10,North,-999,-999.0,-999.0,79,0.00,,,0.00,,2013-03-31 12:52:00,
2013-03-31 09:02:00,35.0,26.0,30.09,North,-999,-999.0,-999.0,70,0.00,,,0.00,,2013-03-31 13:02:00,
2013-03-31 09:12:00,35.0,26.0,30.09,North,-999,-999.0,-999.0,70,0.00,,,0.00,,2013-03-31 13:12:00,
2013-03-31 09:22:00,39.0,26.0,30.09,North,-999,-999.0,-999.0,60,0.00,,,0.00,,2013-03-31 13:22:00,
2013-03-31 09:32:00,41.0,26.0,30.09,North,-999,-999.0,-999.0,54,0.00,,,0.00,,2013-03-31 13:32:00,
2013-03-31 09:42:00,41.0,26.0,30.09,North,-999,-999.0,-999.0,54,0.00,,,0.00,,2013-03-31 13:42:00,
2013-03-31 09:52:00,44.0,27.0,30.09,North,-999,-999.0,-999.0,50,0.00,,,0.00,,2013-03-31 13:52:00,
2013-03-31 10:03:00,46.0,26.0,30.09,North,-999,-999.0,-999.0,46,0.00,,,0.00,,2013-03-31 14:03:00,
2013-03-31 10:12:00,46.0,26.0,30.09,North,-999,-999.0,-999.0,46,0.00,,,0.00,,2013-03-31 14:12:00,
2013-03-31 10:22:00,48.0,24.0,30.08,North,-999,-999.0,-999.0,38,0.00,,,0.00,,2013-03-31 14:22:00,
2013-03-31 10:33:00,50.0,21.0,30.08,North,-999,-999.0,-999.0,31,0.00,,,0.00,,2013-03-31 14:33:00,
2013-03-31 10:43:00,50.0,21.0,30.08,North,-999,-999.0,-999.0,31,0.00,,,0.00,,2013-03-31 14:43:00,
2013-03-31 10:52:00,52.0,22.0,30.07,North,-999,-999.0,-999.0,30,0.00,,,0.00,,2013-03-31 14:52:00,
2013-03-31 11:03:00,54.0,21.0,30.07,North,-999,-999.0,-999.0,27,0.00,,,0.00,,2013-03-31 15:03:00,
2013-03-31 11:13:00,54.0,21.0,30.07,North,-999,-999.0,-999.0,27,0.00,,,0.00,,2013-03-31 15:13:00,
2013-03-31 11:22:00,55.0,22.0,30.07,North,-999,-999.0,-999.0,27,0.00,,,0.00,,2013-03-31 15:22:00,
2013-03-31 11:34:00,55.0,22.0,30.07,North,-999,-999.0,-999.0,27,0.00,,,0.00,,2013-03-31 15:34:00,
2013-03-31 11:43:00,55.0,22.0,30.07,North,-999,-999.0,-999.0,27,0.00,,,0.00,,2013-03-31 15:43:00,
2013-03-31 11:53:00,56.0,22.0,30.06,North,-999,-999.0,-999.0,26,0.00,,,0.00,,2013-03-31 15:53:00,
2013-03-31 12:03:00,57.0,20.0,30.06,SSW,206,1.0,10.0,23,0.00,,,0.00,,2013-03-31 16:03:00,
2013-03-31 12:13:00,57.0,20.0,30.06,SSW,206,1.0,10.0,23,0.00,,,0.00,,2013-03-31 16:13:00,
2013-03-31 12:23:00,57.0,19.0,30.05,North,-999,-999.0,-999.0,22,0.00,,,0.00,,2013-03-31 16:23:00,
2013-03-31 12:33:00,57.0,20.0,30.05,SW,221,5.0,9.0,23,0.00,,,0.00,,2013-03-31 16:33:00,
2013-03-31 12:43:00,57.0,20.0,30.05,SW,221,5.0,9.0,23,0.00,,,0.00,,2013-03-31 16:43:00,
2013-03-31 12:53:00,58.0,21.0,30.04,North,-999,-999.0,-999.0,24,0.00,,,0.00,,2013-03-31 16:53:00,
2013-03-31 13:03:00,57.0,20.0,30.04,North,-999,-999.0,-999.0,23,0.00,,,0.00,,2013-03-31 17:03:00,
2013-03-31 13:13:00,57.0,20.0,30.04,North,-999,-999.0,-999.0,23,0.00,,,0.00,,2013-03-31 17:13:00,
2013-03-31 13:23:00,58.0,19.0,30.04,North,-999,-999.0,-999.0,22,0.00,,,0.00,,2013-03-31 17:23:00,
2013-03-31 13:32:00,57.0,20.0,30.03,North,-999,-999.0,-999.0,23,0.00,,,0.00,,2013-03-31 17:32:00,
2013-03-31 13:43:00,57.0,20.0,30.03,North,-999,-999.0,-999.0,23,0.00,,,0.00,,2013-03-31 17:43:00,
2013-03-31 13:52:00,57.0,20.0,30.01,SSE,162,6.0,17.0,23,0.00,,,0.00,,2013-03-31 17:52:00,
2013-03-31 14:03:00,58.0,21.0,30.01,North,-999,-999.0,-999.0,24,0.00,,,0.00,,2013-03-31 18:03:00,
2013-03-31 14:13:00,58.0,21.0,30.01,North,-999,-999.0,-999.0,24,0.00,,,0.00,,2013-03-31 18:13:00,
2013-03-31 14:22:00,58.0,20.0,30.00,SSW,198,7.0,16.0,23,0.00,,,0.00,,2013-03-31 18:22:00,
2013-03-31 14:33:00,57.0,21.0,30.00,North,-999,-999.0,-999.0,24,0.00,,,0.00,,2013-03-31 18:33:00,
2013-03-31 14:42:00,57.0,21.0,30.00,North,-999,-999.0,-999.0,24,0.00,,,0.00,,2013-03-31 18:42:00,
2013-03-31 14:52:00,57.0,23.0,29.99,North,-999,-999.0,-999.0,27,0.00,,,0.00,,2013-03-31 18:52:00,
2013-03-31 15:03:00,57.0,22.0,29.98,North,-999,-999.0,-999.0,25,0.00,,,0.00,,2013-03-31 19:03:00,
2013-03-31 15:12:00,57.0,22.0,29.98,North,-999,-999.0,-999.0,25,0.00,,,0.00,,2013-03-31 19:12:00,
2013-03-31 15:22:00,57.0,22.0,29.98,North,-999,-999.0,-999.0,25,0.00,,,0.00,,2013-03-31 19:22:00,
2013-03-31 15:33:00,56.0,22.0,29.97,North,-999,-999.0,-999.0,26,0.00,,,0.00,,2013-03-31 19:33:00,
2013-03-31 15:43:00,56.0,22.0,29.97,North,-999,-999.0,-999.0,26,0.00,,,0.00,,2013-03-31 19:43:00,
2013-03-31 15:53:00,55.0,22.0,29.97,North,-999,-999.0,-999.0,27,0.00,,,0.00,,2013-03-31 19:53:00,
2013-03-31 16:03:00,55.0,21.0,29.97,North,-999,-999.0,-999.0,26,0.00,,,0.00,,2013-03-31 20:03:00,
2013-03-31 16:13:00,55.0,21.0,29.97,North,-999,-999.0,-999.0,26,0.00,,,0.00,,2013-03-31 20:13:00,
2013-03-31 16:23:00,55.0,21.0,29.96,North,-999,-999.0,-999.0,26,0.00,,,0.00,,2013-03-31 20:23:00,
2013-03-31 16:34:00,55.0,21.0,29.96,North,-999,-999.0,-999.0,26,0.00,,,0.00,,2013-03-31 20:34:00,
2013-03-31 16:43:00,55.0,21.0,29.96,North,-999,-999.0,-999.0,26,0.00,,,0.00,,2013-03-31 20:43:00,
2013-03-31 16:52:00,54.0,21.0,29.96,North,-999,-999.0,-999.0,27,0.00,,,0.00,,2013-03-31 20:52:00,
2013-03-31 17:03:00,55.0,20.0,29.95,North,-999,-999.0,-999.0,25,0.00,,,0.00,,2013-03-31 21:03:00,
2013-03-31 17:13:00,55.0,20.0,29.95,North,-999,-999.0,-999.0,25,0.00,,,0.00,,2013-03-31 21:13:00,
2013-03-31 17:22:00,54.0,21.0,29.95,North,-999,-999.0,-999.0,27,0.00,,,0.00,,2013-03-31 21:22:00,
2013-03-31 17:34:00,53.0,21.0,29.95,South,184,4.0,17.0,28,0.00,,,0.00,,2013-03-31 21:34:00,
2013-03-31 17:43:00,53.0,21.0,29.95,South,184,4.0,17.0,28,0.00,,,0.00,,2013-03-31 21:43:00,
2013-03-31 17:53:00,53.0,22.0,29.95,SSW,210,8.0,13.0,30,0.00,,,0.00,,2013-03-31 21:53:00,
2013-03-31 18:04:00,52.0,27.0,29.95,SSW,211,9.0,18.0,37,0.00,,,0.00,,2013-03-31 22:04:00,
2013-03-31 18:13:00,52.0,27.0,29.95,SSW,211,9.0,18.0,37,0.00,,,0.00,,2013-03-31 22:13:00,
2013-03-31 18:23:00,52.0,28.0,29.94,SSW,192,8.0,22.0,40,0.00,,,0.00,,2013-03-31 22:23:00,
2013-03-31 18:33:00,51.0,29.0,29.94,North,-999,-999.0,-999.0,43,0.00,,,0.00,,2013-03-31 22:33:00,
2013-03-31 18:43:00,51.0,29.0,29.94,North,-999,-999.0,-999.0,43,0.00,,,0.00,,2013-03-31 22:43:00,
2013-03-31 18:53:00,51.0,30.0,29.93,North,-999,-999.0,-999.0,44,0.00,,,0.00,,2013-03-31 22:53:00,
2013-03-31 19:03:00,51.0,31.0,29.94,SSW,196,8.0,11.0,46,0.00,,,0.00,,2013-03-31 23:03:00,
2013-03-31 19:13:00,51.0,31.0,29.94,SSW,196,8.0,11.0,46,0.00,,,0.00,,2013-03-31 23:13:00,
2013-03-31 19:22:00,50.0,31.0,29.93,North,-999,-999.0,-999.0,47,0.00,,,0.00,,2013-03-31 23:22:00,
2013-03-31 19:33:00,50.0,32.0,29.93,North,-999,-999.0,-999.0,49,0.00,,,0.00,,2013-03-31 23:33:00,
2013-03-31 19:43:00,50.0,32.0,29.93,North,-999,-999.0,-999.0,49,0.00,,,0.00,,2013-03-31 23:43:00,
2013-03-31 19:53:00,50.0,33.0,29.93,South,178,3.0,12.0,51,0.00,,,0.00,,2013-03-31 23:53:00,
2013-03-31 20:02:00,50.0,33.0,29.93,South,178,3.0,12.0,51,0.00,,,0.00,,2013-04-01 00:02:00,
2013-03-31 20:13:00,50.0,33.0,29.93,South,178,3.0,12.0,51,0.00,,,0.00,,2013-04-01 00:13:00,
2013-03-31 20:22:00,47.0,35.0,29.92,SW,214,9.0,17.0,62,0.00,,,0.00,,2013-04-01 00:22:00,
2013-03-31 20:32:00,47.0,35.0,29.92,SSE,147,3.0,12.0,63,0.00,,,0.00,,2013-04-01 00:32:00,
2013-03-31 20:43:00,47.0,35.0,29.92,SSE,147,3.0,12.0,63,0.00,,,0.00,,2013-04-01 00:43:00,
2013-03-31 20:52:00,47.0,35.0,29.91,North,-999,-999.0,-999.0,64,0.00,,,0.00,,2013-04-01 00:52:00,
2013-03-31 21:03:00,47.0,36.0,29.89,SSE,167,1.0,6.0,65,0.00,,,0.00,,2013-04-01 01:03:00,
2013-03-31 21:12:00,47.0,36.0,29.89,SSE,167,1.0,6.0,65,0.00,,,0.00,,2013-04-01 01:12:00,
2013-03-31 21:23:00,47.0,36.0,29.89,SE,146,2.0,7.0,66,0.00,,,0.00,,2013-04-01 01:23:00,
2013-03-31 21:33:00,46.0,36.0,29.88,North,-999,-999.0,-999.0,67,0.00,,,0.00,,2013-04-01 01:33:00,
2013-03-31 21:42:00,46.0,36.0,29.88,North,-999,-999.0,-999.0,67,0.00,,,0.00,,2013-04-01 01:42:00,
2013-03-31 21:52:00,46.0,36.0,29.87,North,-999,-999.0,-999.0,67,0.00,,,0.00,,2013-04-01 01:52:00,
2013-03-31 22:03:00,46.0,36.0,29.86,North,-999,-999.0,-999.0,68,0.00,,,0.00,,2013-04-01 02:03:00,
2013-03-31 22:13:00,46.0,36.0,29.86,North,-999,-999.0,-999.0,68,0.00,,,0.00,,2013-04-01 02:13:00,
2013-03-31 22:23:00,46.0,36.0,29.84,North,-999,-999.0,-999.0,68,0.00,,,0.00,,2013-04-01 02:23:00,
2013-03-31 22:33:00,46.0,36.0,29.83,North,-999,-999.0,-999.0,67,0.00,,,0.00,,2013-04-01 02:33:00,
2013-03-31 22:42:00,46.0,36.0,29.83,North,-999,-999.0,-999.0,67,0.00,,,0.00,,2013-04-01 02:42:00,
2013-03-31 22:52:00,46.0,37.0,29.82,North,-999,-999.0,-999.0,72,0.00,,,0.00,,2013-04-01 02:52:00,
2013-03-31 23:03:00,44.0,37.0,29.81,North,-999,-999.0,-999.0,77,0.01,,,0.01,,2013-04-01 03:03:00,
2013-03-31 23:12:00,44.0,37.0,29.81,North,-999,-999.0,-999.0,77,0.01,,,0.01,,2013-04-01 03:12:00,
2013-03-31 23:23:00,43.0,37.0,29.79,North,-999,-999.0,-999.0,80,0.01,,,0.01,,2013-04-01 03:23:00,
2013-03-31 23:34:00,43.0,38.0,29.77,North,-999,-999.0,-999.0,81,0.02,,,0.02,,2013-04-01 03:34:00,
2013-03-31 23:43:00,43.0,38.0,29.77,North,-999,-999.0,-999.0,81,0.02,,,0.02,,2013-04-01 03:43:00,
2013-03-31 23:53:00,43.0,38.0,29.75,North,-999,-999.0,-999.0,84,0.03,,,0.03,,2013-04-01 03:53:00,